Sanford, NC

12:33 PM EDT on April 26, 2018 (GMT -0400)
Raleigh Executive Jetport

Weather History for KTTA - June, 2013

Change the Weather History Date:

Saturday, June 22, 2013

  Actual Average (KHRJ) Record (KHRJ)
Temperature  
Mean Temperature 72 °F -  
Max Temperature 79 °F 87 °F 99 °F (1981)
Min Temperature 65 °F 66 °F 54 °F (1980)
Cooling Degree Days 7    
Growing Degree Days 22 (Base 50)    
Moisture  
Dew Point 68 °F    
Average Humidity 86    
Maximum Humidity 96    
Minimum Humidity 70    
Precipitation  
Precipitation 0.04 in - - ()
Sea Level Pressure  
Sea Level Pressure 30.18 in    
Wind  
Wind Speed 4 mph (NNE)    
Max Wind Speed 9 mph    
Max Gust Speed -    
Visibility 10 miles    
Events Rain    
Averages and records for this station are not official NWS values.
T = Trace of Precipitation, MM = Missing Value Source: NWS Daily Summary

Daily Weather History Graph

Daily Weather History Graph

Search for Another Location

Airport or City:

Astronomy

Jun. 22, 2013 Rise Set
Actual Time 6:01 AM EDT 8:35 PM EDT
Civil Twilight 5:31 AM EDT 9:05 PM EDT
Nautical Twilight 4:54 AM EDT 9:42 PM EDT
Astronomical Twilight 4:12 AM EDT 10:24 PM EDT
Moon 7:50 PM EDT (6/22) 5:10 AM EDT (6/22)
Length of Visible Light 15h 34m
Length of Day
14h 34m
Waxing Gibbous, 99% of the Moon is Illuminated
Jun 22
Waxing Gibbous
Jun 23
Full
Jun 30
Last Quarter
Jul 8
New
Jul 15
First Quarter

Hourly Weather History & Observations

Time (EDT) Temp. Dew Point Humidity Pressure Visibility Wind Dir Wind Speed Gust Speed Precip Events Conditions
12:15 AM 67.1 °F 63.5 °F 88% 30.20 in 10.0 mi North 3.5 mph - N/A   Clear
12:35 AM 66.6 °F 63.3 °F 89% 30.20 in 10.0 mi Calm Calm - N/A   Clear
12:55 AM 66.7 °F 63.1 °F 88% 30.20 in 10.0 mi Calm Calm - N/A   Clear
1:15 AM 65.3 °F 62.6 °F 91% 30.20 in 10.0 mi NNE 3.5 mph - N/A   Clear
1:35 AM 66.7 °F 63.9 °F 90% 30.20 in 10.0 mi North 3.5 mph - N/A   Clear
1:55 AM 66.2 °F 63.5 °F 91% 30.20 in 10.0 mi North 4.6 mph - N/A   Mostly Cloudy
2:15 AM 66.6 °F 64.4 °F 93% 30.20 in 10.0 mi NNE 3.5 mph - N/A   Overcast
2:35 AM 67.8 °F 66.0 °F 94% 30.19 in 10.0 mi NNE 5.8 mph - N/A   Overcast
2:55 AM 69.4 °F 67.5 °F 93% 30.19 in 10.0 mi NNE 3.5 mph - N/A   Overcast
3:15 AM 69.8 °F 67.1 °F 91% 30.18 in 10.0 mi NNE 4.6 mph - N/A   Mostly Cloudy
3:35 AM 69.3 °F 67.1 °F 93% 30.18 in 10.0 mi North 3.5 mph - N/A   Mostly Cloudy
3:55 AM 69.8 °F 67.6 °F 93% 30.18 in 10.0 mi NNE 4.6 mph - N/A   Mostly Cloudy
4:15 AM 70.2 °F 67.6 °F 92% 30.18 in 10.0 mi NNE 5.8 mph - N/A   Overcast
4:35 AM 70.5 °F 67.8 °F 91% 30.18 in 10.0 mi NNE 5.8 mph - N/A   Overcast
4:55 AM 70.3 °F 67.6 °F 91% 30.18 in 10.0 mi NE 3.5 mph - N/A   Overcast
5:15 AM 70.7 °F 67.8 °F 91% 30.18 in 10.0 mi NNE 4.6 mph - N/A   Overcast
5:35 AM 70.7 °F 67.8 °F 91% 30.19 in 10.0 mi NNE 4.6 mph - N/A   Overcast
5:55 AM 70.7 °F 68.0 °F 91% 30.19 in 10.0 mi North 5.8 mph - N/A   Overcast
6:15 AM 70.9 °F 68.0 °F 91% 30.19 in 10.0 mi NNE 5.8 mph - N/A   Overcast
6:35 AM 71.1 °F 68.0 °F 90% 30.20 in 10.0 mi NNE 3.5 mph - N/A   Overcast
6:55 AM 70.9 °F 68.0 °F 91% 30.20 in 10.0 mi NNE 9.2 mph - N/A   Overcast
7:15 AM 70.7 °F 68.0 °F 91% 30.20 in 7.0 mi NNE 8.1 mph - N/A   Overcast
7:35 AM 70.9 °F 68.0 °F 91% 30.20 in 10.0 mi NNE 8.1 mph - N/A   Overcast
7:55 AM 71.1 °F 68.0 °F 90% 30.20 in 10.0 mi North 6.9 mph - N/A   Overcast
8:15 AM 71.1 °F 68.0 °F 90% 30.20 in 10.0 mi NNE 8.1 mph - N/A   Overcast
8:35 AM 71.2 °F 68.0 °F 89% 30.20 in 10.0 mi NNE 9.2 mph - N/A   Overcast
8:55 AM 71.6 °F 68.0 °F 88% 30.21 in 10.0 mi North 5.8 mph - N/A   Overcast
9:15 AM 72.5 °F 68.0 °F 86% 30.21 in 10.0 mi NNE 5.8 mph - N/A   Overcast
9:35 AM 72.5 °F 68.0 °F 86% 30.21 in 10.0 mi NE 5.8 mph - N/A   Overcast
9:55 AM 71.6 °F 68.5 °F 90% 30.21 in 7.0 mi NNE 5.8 mph - N/A   Overcast
10:15 AM 71.6 °F 69.1 °F 92% 30.20 in 4.0 mi NE 5.8 mph - 0.01 in Rain Rain
10:35 AM 72.0 °F 70.0 °F 93% 30.19 in 7.0 mi NNE 4.6 mph - 0.01 in   Drizzle
10:55 AM 73.6 °F 70.9 °F 91% 30.19 in 10.0 mi NNE 5.8 mph - 0.01 in   Overcast
11:15 AM 73.6 °F 70.0 °F 88% 30.19 in 10.0 mi NNE 5.8 mph - N/A   Overcast
11:35 AM 74.7 °F 69.8 °F 85% 30.20 in 10.0 mi NNE 8.1 mph - N/A   Overcast
11:55 AM 75.7 °F 69.8 °F 82% 30.20 in 10.0 mi NNE 4.6 mph - N/A   Overcast
12:15 PM 75.2 °F 69.8 °F 83% 30.20 in 10.0 mi NNE 4.6 mph - N/A   Overcast
12:35 PM 74.8 °F 70.2 °F 85% 30.20 in 10.0 mi North 6.9 mph - N/A   Light Drizzle
12:55 PM 76.6 °F 68.7 °F 76% 30.20 in 10.0 mi NNE 6.9 mph - N/A   Overcast
1:15 PM 78.3 °F 69.3 °F 74% 30.19 in 10.0 mi North 6.9 mph - N/A   Mostly Cloudy
1:35 PM 79.2 °F 69.3 °F 72% 30.19 in 10.0 mi North 9.2 mph - N/A   Mostly Cloudy
1:55 PM 79.7 °F 69.1 °F 70% 30.18 in 10.0 mi North 6.9 mph - N/A   Mostly Cloudy
2:15 PM 79.7 °F 69.1 °F 70% 30.18 in 10.0 mi North 6.9 mph - N/A   Scattered Clouds
2:35 PM 79.3 °F 69.4 °F 72% 30.17 in 10.0 mi North 5.8 mph - N/A   Scattered Clouds
2:55 PM 79.5 °F 69.3 °F 71% 30.17 in 10.0 mi NNE 6.9 mph - N/A   Mostly Cloudy
3:15 PM 79.7 °F 69.1 °F 70% 30.16 in 10.0 mi North 8.1 mph - N/A   Overcast
3:35 PM 72.7 °F 69.3 °F 89% 30.17 in 5.0 mi Calm Calm - 0.01 in Rain Light Rain
3:55 PM 73.4 °F 70.2 °F 90% 30.16 in 10.0 mi Calm Calm - 0.03 in Rain Light Rain
4:15 PM 75.4 °F 71.1 °F 86% 30.15 in 10.0 mi ENE 3.5 mph - N/A Rain Light Rain
4:35 PM 76.6 °F 71.2 °F 83% 30.15 in 10.0 mi Calm Calm - N/A   Light Drizzle
4:55 PM 78.8 °F 69.6 °F 73% 30.15 in 10.0 mi NNE 3.5 mph - N/A   Scattered Clouds
5:15 PM 78.4 °F 70.2 °F 76% 30.14 in 10.0 mi NE 5.8 mph - N/A   Mostly Cloudy
5:35 PM 78.1 °F 69.4 °F 75% 30.14 in 10.0 mi ENE 4.6 mph - N/A   Scattered Clouds
5:55 PM 77.0 °F 69.8 °F 78% 30.14 in 10.0 mi Calm Calm - N/A   Scattered Clouds
6:15 PM 76.8 °F 69.1 °F 77% 30.14 in 10.0 mi NNE 3.5 mph - N/A   Scattered Clouds
6:35 PM 77.9 °F 69.3 °F 75% 30.13 in 10.0 mi NE 3.5 mph - N/A   Clear
6:55 PM 78.1 °F 69.1 °F 74% 30.12 in 10.0 mi Calm Calm - N/A   Clear
7:15 PM 78.1 °F 69.1 °F 74% 30.12 in 10.0 mi Calm Calm - N/A   Clear
7:35 PM 77.9 °F 68.9 °F 74% 30.13 in 10.0 mi Calm Calm - N/A   Clear
7:55 PM 77.7 °F 69.1 °F 75% 30.13 in 10.0 mi Calm Calm - N/A   Scattered Clouds
8:15 PM 76.8 °F 69.8 °F 79% 30.13 in 10.0 mi Calm Calm - N/A   Mostly Cloudy
8:35 PM 74.7 °F 69.8 °F 85% 30.13 in 10.0 mi Calm Calm - N/A   Scattered Clouds
8:55 PM 73.2 °F 69.8 °F 89% 30.14 in 10.0 mi Calm Calm - N/A   Clear
9:15 PM 72.5 °F 70.2 °F 92% 30.14 in 10.0 mi Calm Calm - N/A   Clear
9:35 PM 71.6 °F 69.8 °F 94% 30.14 in 10.0 mi Calm Calm - N/A   Scattered Clouds
9:55 PM 70.9 °F 69.3 °F 95% 30.14 in 10.0 mi Calm Calm - N/A   Scattered Clouds
10:15 PM 70.7 °F 69.3 °F 95% 30.14 in 10.0 mi Calm Calm - N/A   Scattered Clouds
10:35 PM 70.3 °F 68.9 °F 95% 30.15 in 7.0 mi Calm Calm - N/A   Clear
10:55 PM 70.2 °F 69.1 °F 96% 30.16 in 1.8 mi Calm Calm - N/A   Mostly Cloudy
11:15 PM 69.3 °F 68.0 °F 96% 30.16 in 7.0 mi Calm Calm - N/A   Overcast
11:35 PM 69.4 °F 68.4 °F 96% 30.17 in 7.0 mi Calm Calm - N/A   Scattered Clouds
11:55 PM 69.8 °F 68.7 °F 96% 30.17 in 10.0 mi Calm Calm - N/A   Mostly Cloudy